Zurück zum Katalog

ONEWEB-0047

AktivKommunikationPO
NORAD 45152·PAYLOAD·🇬🇧 United Kingdom

Gestartet Feb 6, 2020 von Baikonur Cosmodrome

Loading…

Nächste Überflüge (nächste 24 Stunden)

TLE

AktuellSource: CelesTrak SupGP

Epoche: Sep 14, 2026, 15:55 UTC

1 45152C 20008X   26257.66338380  .00002966  00000+0  85071-2 0  2578
2 45152  87.8913  18.4567 0001711  94.2030  16.4860 13.10368830    13

Verfolge ONEWEB-0047 in Echtzeit mit AllMySat

Download on the App Store